User: anonymous   Login
Location: Obersdorf
(47.4079°N, 10.2781°E)
Time: 11:29:55
(UTC+01:00)
Language:

XW-2C - Orbit

View from above orbital plane
View from above orbital plane
View from above satellite
View from above satellite

Ground track
Ground track

The orbit data is extracted from the following two-line orbital elements,

1 40906U 15049H   21334.91538513  .00001930  00000-0  10019-3 0  9993
2 40906  97.4919 335.2848 0013713 336.3053  88.9249 15.17248685342805
Epoch (UTC): 30 November 2021 21:58:09
Eccentricity: 0.0013713
inclination: 97.4919°
perigee height: 505 km
apogee height: 523 km
right ascension of ascending node: 335.2848°
argument of perigee: 336.3053°
revolutions per day: 15.17248685
mean anomaly at epoch: 88.9249°
orbit number at epoch: 34280

The dashed part of the orbit path shows where the satellite is in the earth's shadow,  

DLR